Volver al catálogo

INTELSAT 33E DEB

ActivoMEO
NORAD 62005·DEBRIS· XX

Lanzado Aug 24, 2016 desde Guiana Space Centre

Loading…

Próximos Pases (próximas 24 horas)

TLE

ActualizadoSource: Space-Track

Época: Sep 13, 2026, 06:06 UTC

1 62005U 16053X   26256.25453337 -.00000100  00000-0  00000+0 0  9992
2 62005   1.9427  93.5062 0272334 252.7838 104.9310  1.04572962  7235

Sigue INTELSAT 33E DEB en tiempo real con AllMySat

Download on the App Store